DLA2RL EDDF-EGLC

Flight info

Callsign DLA2RL
Flight time N/A
Altitude 36000
Route SOBRA2L SOBRA Y180 BITBU Y181 DEMUL DCT DENUT L608 SUMUM
Aircraft E190/M-SDE3GILORVW/S

Departure

Time 2026-04-16 14:53
Airport Frankfurt Main Airport (EDDF)

Arrival

Time N/A
Airport London City Airport (EGLC)
Time Latitude Longitude Altitude Speed Heading
2026-04-16 14:32 50.04843 8.58904 373 ft 0 kts 341°
2026-04-16 14:48 50.04842 8.58905 372 ft 1 kts 342°
2026-04-16 14:48 50.04829 8.58914 372 ft 2 kts 340°
2026-04-16 14:48 50.04814 8.58921 372 ft 2 kts 341°
2026-04-16 14:48 50.04801 8.58929 372 ft 2 kts 341°
2026-04-16 14:49 50.04787 8.58936 372 ft 2 kts 341°
2026-04-16 14:49 50.04773 8.58944 372 ft 1 kts 341°
2026-04-16 14:49 50.04772 8.58945 372 ft 0 kts 341°
2026-04-16 14:51 50.04773 8.58943 372 ft 0 kts 323°
2026-04-16 14:51 50.04771 8.58923 372 ft 6 kts 248°
2026-04-16 14:51 50.04740 8.58824 372 ft 15 kts 245°
2026-04-16 14:51 50.04695 8.58665 372 ft 16 kts 247°
2026-04-16 14:53 50.03316 8.53957 1252 ft 187 kts 246°
2026-04-16 14:53 50.02837 8.52304 1486 ft 158 kts 245°
2026-04-16 14:54 50.02303 8.50851 1504 ft 151 kts 231°
2026-04-16 14:54 50.01500 8.49731 2025 ft 169 kts 213°
2026-04-16 14:54 50.00405 8.48949 2742 ft 184 kts 202°
2026-04-16 14:54 49.99077 8.48356 2230 ft 219 kts 197°
2026-04-16 14:55 49.97731 8.47770 2587 ft 220 kts 199°
2026-04-16 14:55 49.96194 8.47011 3112 ft 242 kts 200°
2026-04-16 14:55 49.94545 8.46153 3819 ft 259 kts 200°
2026-04-16 14:55 49.92954 8.44990 4576 ft 269 kts 220°
2026-04-16 14:56 49.91565 8.43002 5438 ft 277 kts 225°
2026-04-16 14:56 49.90221 8.41007 6309 ft 283 kts 225°
2026-04-16 14:56 49.88798 8.38887 7242 ft 288 kts 225°
2026-04-16 14:56 49.87364 8.36752 8192 ft 291 kts 225°
2026-04-16 14:57 49.85891 8.34560 9148 ft 292 kts 224°
2026-04-16 14:57 49.84446 8.32409 10081 ft 293 kts 225°
2026-04-16 14:57 49.82981 8.30233 11012 ft 293 kts 225°
2026-04-16 14:57 49.81522 8.28066 11930 ft 292 kts 226°
2026-04-16 14:58 49.80092 8.25896 12820 ft 290 kts 233°
2026-04-16 14:58 49.79454 8.20119 14518 ft 281 kts 282°
2026-04-16 14:58 49.79875 8.17211 15366 ft 280 kts 283°
2026-04-16 14:59 49.80317 8.14311 16198 ft 279 kts 284°
2026-04-16 14:59 49.80768 8.11419 17017 ft 278 kts 284°
2026-04-16 14:59 49.81222 8.08531 17829 ft 276 kts 284°
2026-04-16 14:59 49.81671 8.05692 18619 ft 274 kts 284°
2026-04-16 15:00 49.82125 8.02823 19403 ft 273 kts 284°
2026-04-16 15:00 49.82568 8.00011 20168 ft 271 kts 284°
2026-04-16 15:00 49.83012 7.97195 20915 ft 270 kts 284°
2026-04-16 15:00 49.83451 7.94404 21633 ft 269 kts 284°
2026-04-16 15:01 49.83895 7.91574 22331 ft 268 kts 284°
2026-04-16 15:01 49.84330 7.88799 23005 ft 268 kts 284°
2026-04-16 15:01 49.84768 7.86000 23582 ft 270 kts 284°
2026-04-16 15:01 49.85226 7.83071 23621 ft 291 kts 284°
2026-04-16 15:02 49.85718 7.79917 23681 ft 311 kts 284°
2026-04-16 15:02 49.86238 7.76598 23729 ft 330 kts 284°
2026-04-16 15:02 49.86801 7.73039 23801 ft 349 kts 285°
2026-04-16 15:02 49.87381 7.69331 24158 ft 358 kts 284°
2026-04-16 15:03 49.87965 7.65559 24782 ft 360 kts 284°
2026-04-16 15:03 49.88546 7.61802 25524 ft 359 kts 284°
2026-04-16 15:03 49.89122 7.58067 26247 ft 358 kts 284°
2026-04-16 15:03 49.89696 7.54346 26877 ft 358 kts 285°
2026-04-16 15:04 49.90275 7.50575 27391 ft 362 kts 285°
2026-04-16 15:04 49.90862 7.46744 27896 ft 365 kts 285°
2026-04-16 15:04 49.91448 7.42912 28443 ft 367 kts 285°
2026-04-16 15:04 49.92030 7.39092 28954 ft 370 kts 285°
2026-04-16 15:05 49.92626 7.35177 29471 ft 372 kts 285°
2026-04-16 15:05 49.93215 7.31297 29995 ft 374 kts 285°
2026-04-16 15:05 49.93817 7.27325 30508 ft 376 kts 284°
2026-04-16 15:05 49.94412 7.23382 31043 ft 377 kts 285°
2026-04-16 15:06 49.95001 7.19475 31554 ft 378 kts 285°
2026-04-16 15:06 49.95602 7.15471 32107 ft 378 kts 285°
2026-04-16 15:06 49.96188 7.11559 32708 ft 376 kts 285°
2026-04-16 15:06 49.96775 7.07629 33379 ft 372 kts 286°
2026-04-16 15:07 49.97348 7.03784 34109 ft 366 kts 287°
2026-04-16 15:07 49.97917 6.99968 34775 ft 360 kts 287°
2026-04-16 15:07 49.98474 6.96219 35244 ft 358 kts 287°
2026-04-16 15:07 49.99023 6.92478 35545 ft 361 kts 285°
2026-04-16 15:08 49.99266 6.88567 35815 ft 369 kts 274°
2026-04-16 15:08 49.99160 6.84557 36095 ft 372 kts 272°
2026-04-16 15:08 49.99041 6.80563 36185 ft 375 kts 272°
2026-04-16 15:09 49.98795 6.72331 36209 ft 392 kts 272°
2026-04-16 15:09 49.98533 6.63758 36207 ft 408 kts 272°
2026-04-16 15:10 49.98255 6.54856 36205 ft 421 kts 272°
2026-04-16 15:10 49.97966 6.45740 36196 ft 429 kts 272°
2026-04-16 15:11 49.97665 6.36440 36195 ft 433 kts 271°
2026-04-16 15:11 49.97355 6.27143 36199 ft 436 kts 271°
2026-04-16 15:11 49.97199 6.22570 36189 ft 422 kts 271°
2026-04-16 15:12 49.97043 6.18006 36179 ft 406 kts 271°
2026-04-16 15:12 49.96892 6.13827 36175 ft 392 kts 271°
2026-04-16 15:12 49.96738 6.09665 36175 ft 380 kts 271°
2026-04-16 15:12 49.96591 6.05673 36171 ft 367 kts 272°
2026-04-16 15:13 49.96734 6.01805 36176 ft 350 kts 283°
2026-04-16 15:13 49.97360 5.98315 36176 ft 335 kts 294°
2026-04-16 15:13 49.98386 5.95112 36171 ft 323 kts 303°
2026-04-16 15:14 50.01025 5.89792 36161 ft 302 kts 309°
2026-04-16 15:14 50.02360 5.87367 36152 ft 292 kts 309°
2026-04-16 15:14 50.03670 5.85035 36155 ft 281 kts 309°
2026-04-16 15:14 50.04936 5.82797 36158 ft 271 kts 309°
2026-04-16 15:15 50.06150 5.80661 36150 ft 261 kts 309°
2026-04-16 15:15 50.07325 5.78594 36146 ft 250 kts 309°
2026-04-16 15:15 50.08452 5.76613 36143 ft 238 kts 309°
2026-04-16 15:15 50.09520 5.74734 36137 ft 227 kts 309°
2026-04-16 15:16 50.10524 5.72967 36135 ft 215 kts 308°
2026-04-16 15:16 50.11487 5.71273 36130 ft 202 kts 308°
2026-04-16 15:16 50.12403 5.69697 35916 ft 201 kts 310°
2026-04-16 15:16 50.13409 5.68156 35488 ft 208 kts 315°
2026-04-16 15:17 50.14561 5.66774 35213 ft 209 kts 322°
2026-04-16 15:17 50.15832 5.65734 35092 ft 207 kts 331°
2026-04-16 15:17 50.17257 5.65141 34808 ft 218 kts 343°
2026-04-16 15:17 50.18806 5.65200 34391 ft 239 kts 359°
2026-04-16 15:18 50.20372 5.64847 33535 ft 226 kts 314°
2026-04-16 15:18 50.21320 5.62917 33236 ft 232 kts 302°
2026-04-16 15:18 50.22156 5.60890 33506 ft 231 kts 302°
2026-04-16 15:18 50.23024 5.58748 33766 ft 231 kts 302°
2026-04-16 15:19 50.23865 5.56604 33927 ft 236 kts 296°
2026-04-16 15:19 50.24356 5.54226 34465 ft 229 kts 285°
2026-04-16 15:19 50.24678 5.51723 34448 ft 241 kts 285°
2026-04-16 15:19 50.25123 5.49166 34499 ft 249 kts 294°
2026-04-16 15:20 50.25916 5.46748 34556 ft 257 kts 302°
2026-04-16 15:20 50.26958 5.44372 34594 ft 268 kts 306°
2026-04-16 15:20 50.28117 5.42049 34628 ft 279 kts 307°
2026-04-16 15:20 50.29370 5.39685 34660 ft 290 kts 308°
2026-04-16 15:21 50.30686 5.37275 34688 ft 301 kts 309°
2026-04-16 15:21 50.33459 5.32278 34757 ft 322 kts 308°
2026-04-16 15:21 50.34954 5.29598 34788 ft 333 kts 308°
2026-04-16 15:22 50.36488 5.26848 34829 ft 343 kts 308°
2026-04-16 15:22 50.38063 5.24023 34860 ft 354 kts 309°
2026-04-16 15:22 50.39670 5.21139 34884 ft 364 kts 308°
2026-04-16 15:23 50.43069 5.15027 34932 ft 384 kts 309°
2026-04-16 15:23 50.46605 5.08654 35254 ft 394 kts 309°
2026-04-16 15:23 50.48354 5.05497 35599 ft 394 kts 308°
2026-04-16 15:24 50.50138 5.02271 35956 ft 393 kts 308°
2026-04-16 15:24 50.51911 4.99059 36160 ft 395 kts 308°
2026-04-16 15:24 50.53682 4.95851 36181 ft 394 kts 308°
2026-04-16 15:25 50.57233 4.89401 36186 ft 392 kts 308°
2026-04-16 15:25 50.60751 4.82995 36188 ft 391 kts 308°
2026-04-16 15:26 50.64274 4.76565 36201 ft 392 kts 308°
2026-04-16 15:26 50.67796 4.70121 36202 ft 392 kts 308°
2026-04-16 15:27 50.71276 4.63737 36206 ft 391 kts 308°
2026-04-16 15:27 50.74804 4.57250 36210 ft 392 kts 308°
2026-04-16 15:28 50.78271 4.50858 36211 ft 390 kts 308°
2026-04-16 15:28 50.81746 4.44435 36211 ft 389 kts 308°
2026-04-16 15:29 50.85222 4.37995 36197 ft 389 kts 308°
2026-04-16 15:29 50.88683 4.31567 36205 ft 389 kts 307°
2026-04-16 15:30 50.92166 4.25081 36223 ft 390 kts 307°
2026-04-16 15:30 50.95643 4.18590 36209 ft 392 kts 307°
2026-04-16 15:31 50.99144 4.12037 36205 ft 391 kts 307°
2026-04-16 15:31 51.02622 4.05511 36204 ft 390 kts 307°
2026-04-16 15:32 51.06028 3.99107 36193 ft 372 kts 307°
2026-04-16 15:32 51.09338 3.92862 36199 ft 371 kts 307°
2026-04-16 15:32 51.10974 3.89772 36022 ft 374 kts 307°
2026-04-16 15:33 51.12640 3.86619 35632 ft 373 kts 307°
2026-04-16 15:33 51.14303 3.83471 35222 ft 370 kts 307°
2026-04-16 15:33 51.15934 3.80379 34821 ft 368 kts 306°
2026-04-16 15:33 51.17552 3.77307 34398 ft 366 kts 306°
2026-04-16 15:34 51.19208 3.74158 33986 ft 370 kts 306°
2026-04-16 15:34 51.20856 3.71022 33575 ft 373 kts 306°
2026-04-16 15:34 51.22533 3.67827 33157 ft 376 kts 306°
2026-04-16 15:34 51.24036 3.64552 32749 ft 376 kts 299°
2026-04-16 15:35 51.25400 3.60940 32330 ft 377 kts 299°
2026-04-16 15:35 51.26742 3.57344 31917 ft 379 kts 298°
2026-04-16 15:35 51.28067 3.53777 31500 ft 383 kts 298°
2026-04-16 15:35 51.29419 3.50129 31072 ft 384 kts 298°
2026-04-16 15:36 51.30772 3.46473 30653 ft 383 kts 299°
2026-04-16 15:36 51.32124 3.42815 30221 ft 382 kts 298°
2026-04-16 15:36 51.33442 3.39240 29810 ft 380 kts 298°
2026-04-16 15:36 51.34736 3.35596 29380 ft 376 kts 294°
2026-04-16 15:37 51.35710 3.31755 28989 ft 376 kts 289°
2026-04-16 15:37 51.36634 3.27855 28573 ft 375 kts 289°
2026-04-16 15:37 51.37560 3.23949 28156 ft 373 kts 289°
2026-04-16 15:37 51.38478 3.20071 27740 ft 373 kts 289°
2026-04-16 15:38 51.39384 3.16233 27332 ft 372 kts 289°
2026-04-16 15:38 51.40297 3.12365 26918 ft 371 kts 289°
2026-04-16 15:38 51.41200 3.08533 26512 ft 369 kts 289°
2026-04-16 15:38 51.42112 3.04664 26104 ft 368 kts 289°
2026-04-16 15:39 51.43010 3.00841 25691 ft 366 kts 289°
2026-04-16 15:39 51.43899 2.97050 25284 ft 365 kts 289°
2026-04-16 15:39 51.44786 2.93266 24888 ft 363 kts 289°
2026-04-16 15:39 51.45673 2.89469 24486 ft 363 kts 289°
2026-04-16 15:40 51.46554 2.85695 24080 ft 362 kts 289°
2026-04-16 15:40 51.47433 2.81923 23695 ft 360 kts 289°
2026-04-16 15:40 51.48296 2.78212 23294 ft 360 kts 289°
2026-04-16 15:40 51.49176 2.74420 22898 ft 357 kts 289°
2026-04-16 15:41 51.50036 2.70711 22513 ft 357 kts 289°
2026-04-16 15:41 51.50894 2.67003 22112 ft 355 kts 289°
2026-04-16 15:41 51.51752 2.63287 21720 ft 355 kts 289°
2026-04-16 15:41 51.52605 2.59588 21329 ft 353 kts 289°
2026-04-16 15:42 51.53457 2.55886 20931 ft 351 kts 289°
2026-04-16 15:42 51.54293 2.52243 20554 ft 351 kts 289°
2026-04-16 15:42 51.55135 2.48574 20167 ft 350 kts 289°
2026-04-16 15:42 51.55981 2.44877 19776 ft 348 kts 289°
2026-04-16 15:43 51.56810 2.41243 19393 ft 346 kts 289°
2026-04-16 15:43 51.57633 2.37635 19019 ft 346 kts 289°
2026-04-16 15:43 51.58450 2.34053 18628 ft 343 kts 288°
2026-04-16 15:43 51.59272 2.30443 18260 ft 343 kts 288°
2026-04-16 15:44 51.60088 2.26859 17879 ft 341 kts 288°
2026-04-16 15:44 51.60723 2.24065 17583 ft 339 kts 288°
2026-04-16 15:44 51.61654 2.19961 17149 ft 337 kts 288°
2026-04-16 15:44 51.62463 2.16388 16768 ft 335 kts 288°
2026-04-16 15:45 51.63258 2.12872 16401 ft 334 kts 288°
2026-04-16 15:45 51.64050 2.09355 16033 ft 333 kts 288°
2026-04-16 15:45 51.64840 2.05843 15661 ft 332 kts 288°
2026-04-16 15:45 51.65618 2.02374 15293 ft 330 kts 288°
2026-04-16 15:46 51.66397 1.98899 14929 ft 329 kts 288°
2026-04-16 15:46 51.67161 1.95480 14572 ft 328 kts 288°
2026-04-16 15:46 51.67940 1.91991 14210 ft 325 kts 288°
2026-04-16 15:46 51.68692 1.88617 13847 ft 324 kts 288°
2026-04-16 15:47 51.69380 1.85528 13521 ft 315 kts 288°
2026-04-16 15:47 51.69532 1.84845 13444 ft 313 kts 288°
2026-04-16 15:47 51.70922 1.78583 12787 ft 292 kts 287°
2026-04-16 15:48 51.71597 1.75534 12465 ft 283 kts 287°
2026-04-16 15:48 51.72158 1.73001 12197 ft 279 kts 287°
2026-04-16 15:48 51.72162 1.72981 12195 ft 279 kts 287°
2026-04-16 15:48 51.72750 1.70318 11928 ft 279 kts 287°
2026-04-16 15:49 51.73402 1.67359 11627 ft 280 kts 287°
2026-04-16 15:49 51.74058 1.64381 11307 ft 279 kts 287°
2026-04-16 15:49 51.74628 1.61425 10990 ft 277 kts 275°
2026-04-16 15:49 51.74560 1.58365 10703 ft 267 kts 264°
2026-04-16 15:50 51.74383 1.55422 10392 ft 260 kts 264°
2026-04-16 15:50 51.74207 1.52581 10103 ft 252 kts 264°
2026-04-16 15:50 51.74032 1.49812 9831 ft 245 kts 263°
2026-04-16 15:50 51.73860 1.47120 9559 ft 238 kts 263°
2026-04-16 15:51 51.73691 1.44490 9300 ft 231 kts 263°
2026-04-16 15:51 51.73436 1.41978 9061 ft 223 kts 253°
2026-04-16 15:51 51.72986 1.39600 9068 ft 220 kts 253°
2026-04-16 15:51 51.72535 1.37227 9073 ft 223 kts 253°
2026-04-16 15:52 51.72091 1.34898 9072 ft 225 kts 252°
2026-04-16 15:52 51.71619 1.32430 9077 ft 225 kts 252°
2026-04-16 15:52 51.71155 1.30003 9074 ft 225 kts 252°
2026-04-16 15:52 51.70689 1.27572 9074 ft 225 kts 252°
2026-04-16 15:53 51.70238 1.25220 9072 ft 224 kts 252°
2026-04-16 15:53 51.69789 1.22883 9070 ft 225 kts 252°
2026-04-16 15:53 51.69323 1.20463 9063 ft 224 kts 252°
2026-04-16 15:53 51.68864 1.18078 9070 ft 224 kts 252°
2026-04-16 15:54 51.68403 1.15688 9094 ft 219 kts 252°
2026-04-16 15:54 51.67968 1.13432 9135 ft 197 kts 252°
2026-04-16 15:54 51.67582 1.11436 9123 ft 209 kts 252°
2026-04-16 15:54 51.67189 1.09406 9196 ft 220 kts 252°
2026-04-16 15:55 51.66724 1.07007 9205 ft 223 kts 252°
2026-04-16 15:55 51.66265 1.04641 9207 ft 223 kts 252°
2026-04-16 15:55 51.65803 1.02264 9171 ft 221 kts 252°
2026-04-16 15:55 51.65344 0.99899 9168 ft 222 kts 252°
2026-04-16 15:56 51.64879 0.97514 9173 ft 222 kts 252°
2026-04-16 15:56 51.64420 0.95155 9185 ft 222 kts 252°
2026-04-16 15:56 51.63953 0.92763 9155 ft 223 kts 252°
2026-04-16 15:56 51.63487 0.90382 9142 ft 222 kts 252°
2026-04-16 15:57 51.63018 0.87980 9121 ft 223 kts 252°
2026-04-16 15:57 51.62552 0.85601 9127 ft 224 kts 252°
2026-04-16 15:57 51.62089 0.83245 9097 ft 223 kts 252°
2026-04-16 15:57 51.61621 0.80858 8949 ft 223 kts 252°
2026-04-16 15:58 51.61190 0.78670 8755 ft 222 kts 252°
2026-04-16 15:58 51.60726 0.76311 8526 ft 221 kts 252°
2026-04-16 15:58 51.60259 0.73943 8288 ft 220 kts 252°
2026-04-16 15:58 51.59810 0.71664 8054 ft 219 kts 252°
2026-04-16 15:59 51.58901 0.67068 7579 ft 218 kts 252°
2026-04-16 15:59 51.58440 0.64739 7335 ft 218 kts 252°
2026-04-16 15:59 51.57997 0.62507 7102 ft 217 kts 252°
2026-04-16 16:00 51.57542 0.60214 6863 ft 216 kts 252°
2026-04-16 16:00 51.57093 0.57951 6625 ft 213 kts 252°
2026-04-16 16:00 51.56648 0.55715 6380 ft 205 kts 252°
2026-04-16 16:00 51.56218 0.53559 6172 ft 202 kts 252°
2026-04-16 16:01 51.55791 0.51417 5955 ft 201 kts 252°
2026-04-16 16:01 51.55369 0.49301 5722 ft 201 kts 251°
2026-04-16 16:01 51.54938 0.47144 5510 ft 201 kts 252°
2026-04-16 16:01 51.54513 0.45020 5284 ft 196 kts 252°
2026-04-16 16:02 51.54106 0.42986 5068 ft 187 kts 251°
2026-04-16 16:02 51.53719 0.41057 4850 ft 179 kts 251°
2026-04-16 16:02 51.53348 0.39207 4702 ft 165 kts 251°
2026-04-16 16:02 51.53012 0.37534 4533 ft 154 kts 251°
2026-04-16 16:03 51.52688 0.35923 4366 ft 154 kts 251°
2026-04-16 16:03 51.52362 0.34306 4162 ft 155 kts 250°
2026-04-16 16:03 51.52039 0.32700 4009 ft 156 kts 250°
2026-04-16 16:03 51.51729 0.31160 3816 ft 145 kts 250°
2026-04-16 16:04 51.51463 0.29839 3661 ft 140 kts 250°
2026-04-16 16:04 51.51208 0.28577 3544 ft 138 kts 250°
2026-04-16 16:04 51.50911 0.27104 3411 ft 139 kts 250°
2026-04-16 16:05 51.50271 0.23941 3095 ft 140 kts 250°
2026-04-16 16:05 51.50022 0.22514 2886 ft 130 kts 263°
2026-04-16 16:05 51.50027 0.21114 2593 ft 125 kts 268°
2026-04-16 16:05 51.50063 0.19770 2305 ft 121 kts 268°
2026-04-16 16:06 51.50103 0.18460 2184 ft 120 kts 269°
2026-04-16 16:06 51.50145 0.17138 2182 ft 125 kts 268°
2026-04-16 16:06 51.50189 0.15832 2094 ft 129 kts 267°
2026-04-16 16:06 51.50236 0.14364 1752 ft 131 kts 268°
2026-04-16 16:07 51.50283 0.12946 1440 ft 129 kts 268°
2026-04-16 16:07 51.50322 0.11752 1175 ft 124 kts 269°
2026-04-16 16:07 51.50359 0.10612 931 ft 127 kts 268°
2026-04-16 16:07 51.50389 0.09072 592 ft 121 kts 269°
2026-04-16 16:08 51.50443 0.07679 284 ft 128 kts 269°